User: anonymous   Login
Location: Baumgartsau
(48.4586°N, 14.0864°E)
Time: 15:04:08
(UTC+00:00)
Language:

SeaSat 1 - Orbit

View from above orbital plane
View from above orbital plane
View from above satellite
View from above satellite

Ground track
Ground track

The orbit data is extracted from the following two-line orbital elements,

1 10967U 78064A   20195.51917721 -.00000092 +00000-0 +13202-4 0  9992
2 10967 108.0020 125.4464 0001851 310.8696 049.2288 14.43826343208359
Epoch (UTC): 13 July 2020 12:27:36
Eccentricity: 0.0001851
inclination: 108.0020°
perigee height: 744 km
apogee height: 747 km
right ascension of ascending node: 125.4464°
argument of perigee: 310.8696°
revolutions per day: 14.43826343
mean anomaly at epoch: 49.2288°
orbit number at epoch: 20835

The dashed part of the orbit path shows where the satellite is in the earth's shadow,  

DLR